Jacksonville, FL

5:23 AM EDT on June 21, 2018 (GMT -0400)
Jacksonville International

Weather History for KJAX - June, 2018

Change the Weather History Date:

Thursday, June 14, 2018

  Actual Average Record
Temperature  
Mean Temperature 81 °F 80 °F  
Max Temperature 91 °F 90 °F 101 °F (1998)
Min Temperature 71 °F 70 °F 57 °F (1972)
Degree Days  
Heating Degree Days 0 0  
Month to date heating degree days 0 0  
Since 1 June heating degree days 0 0  
Since 1 July heating degree days 1103 1349  
Cooling Degree Days 16 15  
Month to date cooling degree days 214 195  
Year to date cooling degree days 810 679  
Since 1 June cooling degree days 214 195  
Growing Degree Days 31 (Base 50)    
Moisture  
Dew Point 72 °F    
Average Humidity 78    
Maximum Humidity 100    
Minimum Humidity 55    
Precipitation  
Precipitation T in 0.23 in 4.15 in (1962)
Month to date precipitation 5.13 2.69  
Year to date precipitation 23.78 18.25  
Snow  
Snow 0.00 in 0.00 in 0.00 in (2002)
Month to date snowfall 0.0 0.0  
Since 1 June snowfall 0.0 0.0  
Since 1 July snowfall T T  
Snow Depth 0.00 in    
Sea Level Pressure  
Sea Level Pressure 30.04 in    
Wind  
Wind Speed 6 mph (SW)    
Max Wind Speed 18 mph    
Max Gust Speed 24 mph    
Visibility 10 miles    
Events Rain , Thunderstorm    
T = Trace of Precipitation, MM = Missing Value Source: NWS Daily Summary

Daily Weather History Graph

Daily Weather History Graph

Search for Another Location

Airport or City:

Astronomy

Jun. 14, 2018 Rise Set
Actual Time 6:23 AM EDT 8:30 PM EDT
Civil Twilight 5:56 AM EDT 8:57 PM EDT
Nautical Twilight 5:22 AM EDT 9:31 PM EDT
Astronomical Twilight 4:46 AM EDT 10:07 PM EDT
Moon 7:16 AM EDT (6/14) 9:32 PM EDT (6/14)
Length of Visible Light 15h 01m
Length of Day
14h 06m
New Moon, 1% of the Moon is Illuminated
Jun 14
New Moon
Jun 20
First Quarter
Jun 28
Full
Jul 6
Last Quarter
Jul 12
New

Hourly Weather History & Observations

Time (EDT) Temp. Heat Index Dew Point Humidity Pressure Visibility Wind Dir Wind Speed Gust Speed Precip Events Conditions
12:56 AM 73.0 °F - 72.0 °F 96% 30.06 in 10.0 mi SSW 3.5 mph - N/A   Overcast
1:56 AM 73.0 °F - 73.0 °F 100% 30.05 in 10.0 mi Calm Calm - N/A   Overcast
3:56 AM 72.0 °F - 71.1 °F 97% 30.04 in 10.0 mi WSW 3.5 mph - N/A   Scattered Clouds
4:56 AM 72.0 °F - 71.1 °F 97% 30.03 in 10.0 mi West 5.8 mph - N/A   Mostly Cloudy
5:56 AM 72.0 °F - 71.1 °F 97% 30.04 in 10.0 mi SW 3.5 mph - N/A   Mostly Cloudy
6:56 AM 72.0 °F - 72.0 °F 100% 30.04 in 10.0 mi South 4.6 mph - N/A   Mostly Cloudy
7:56 AM 75.9 °F - 72.0 °F 87% 30.05 in 10.0 mi West 8.1 mph - N/A   Mostly Cloudy
8:56 AM 79.0 °F - 72.0 °F 79% 30.07 in 10.0 mi West 10.4 mph - N/A   Mostly Cloudy
9:56 AM 80.1 °F 84.2 °F 73.0 °F 79% 30.08 in 10.0 mi WSW 6.9 mph - N/A   Mostly Cloudy
10:56 AM 82.9 °F 87.5 °F 71.1 °F 67% 30.08 in 10.0 mi West 9.2 mph - N/A   Mostly Cloudy
11:56 AM 84.9 °F 90.1 °F 71.1 °F 63% 30.08 in 10.0 mi West 6.9 mph - N/A   Mostly Cloudy
12:56 PM 87.1 °F 92.0 °F 70.0 °F 57% 30.06 in 10.0 mi SW 9.2 mph - N/A   Mostly Cloudy
1:56 PM 88.0 °F 93.8 °F 71.1 °F 57% 30.04 in 10.0 mi WSW 9.2 mph - N/A   Mostly Cloudy
2:56 PM 89.1 °F 95.0 °F 71.1 °F 55% 30.02 in 10.0 mi WSW 8.1 mph - N/A   Mostly Cloudy
3:56 PM 90.0 °F 96.4 °F 71.1 °F 54% 29.99 in 10.0 mi WNW 5.8 mph - N/A Thunderstorm Mostly Cloudy
4:21 PM 89.1 °F 95.0 °F 71.1 °F 55% 29.98 in 10.0 mi SSW 9.2 mph - N/A Thunderstorm Thunderstorm
4:56 PM 82.9 °F 87.0 °F 70.0 °F 65% 29.99 in 10.0 mi SSW 9.2 mph - N/A Thunderstorm Thunderstorm
5:56 PM 84.0 °F 90.2 °F 73.0 °F 69% 29.99 in 10.0 mi ENE 5.8 mph - 0.00 in Thunderstorm Thunderstorm
6:56 PM 81.0 °F 85.8 °F 73.0 °F 77% 30.01 in 10.0 mi NE 9.2 mph - N/A Thunderstorm Thunderstorm
7:56 PM 79.0 °F - 73.9 °F 84% 30.01 in 10.0 mi NNE 4.6 mph - N/A Thunderstorm Thunderstorm
8:36 PM 78.1 °F - 73.9 °F 87% 30.01 in 10.0 mi SSW 4.6 mph - N/A   Overcast
8:56 PM 78.1 °F - 75.0 °F 90% 30.02 in 10.0 mi SSE 4.6 mph - N/A   Overcast
9:56 PM 78.1 °F - 73.9 °F 87% 30.04 in 10.0 mi SSE 5.8 mph - N/A   Overcast
10:56 PM 77.0 °F - 75.0 °F 94% 30.05 in 10.0 mi South 4.6 mph - N/A   Overcast
11:56 PM 75.9 °F - 73.9 °F 94% 30.06 in 10.0 mi SW 3.5 mph - N/A   Mostly Cloudy